{"data":{"norad_id":53636,"intl_designator":"2022-104BA","name":"STARLINK-4586","alt_names":[],"object_type":"PAYLOAD","status":"ACTIVE","operator":null,"country":"US","launch_date":"2022-08-28","launch_site_code":"AFETR","launch_vehicle":null,"mission":null,"orbit_class":"UNKNOWN","rcs_meters":null,"size_class":null,"mass_kg":null,"dimensions":null,"purposes":["comms"],"wikipedia_slug":null,"has_3d_model":false,"image_url":null,"decayed_at":null,"tle_current":{"epoch":"2026-05-24T15:21:41.683392Z","epoch_age_seconds":103465,"freshness":"FRESH","line1":"1 53636U 22104BA  26144.64006578  .00024050  00000+0  15219-2 0  9995","line2":"2 53636  53.2138 242.9946 0001127  88.6433 271.4689 15.08892035207698","mean_motion":15.08892035,"eccentricity":0.0001127,"inclination_deg":53.2138,"raan_deg":242.9946,"arg_perigee_deg":88.6433,"mean_anomaly_deg":271.4689,"bstar":0.0015219,"rev_number":20769,"period_min":95.434263459413,"perigee_km":538.80471616143,"apogee_km":540.36397055222,"semimajor_km":6917.7213433568,"source":"CELESTRAK","updated_at":"2026-05-25T13:38:17.482516Z"}}}